Wind_Speed
20 19 19 19 19 18 18 17 17 16 16 15 15 14 14 13 12 12 11 10 9 10 10 11 12 12 13 14 14 15 16 17 17 18 18 18 19 18 17 15 13 12 10 9 9 9 10 10 11 11 12 13 14 16 17 19 20 20 20 18 17 17 18 19 21 21 22 22 22
20 19 18 18 18 18 18 17 17 16 16 15 15 14 14 13 12 12 11 10 10 10 11 12 12 13 13 14 15 16 17 17 18 18 17 16 15 14 12 10 9 8 8 8 8 9 10 11 11 11 11 12 12 13 13 14 16 18 19 18 17 17 18 19 20 21 21 22 22
19 19 18 18 18 18 17 17 16 16 15 15 15 15 14 13 13 12 11 10 10 11 11 12 13 13 13 13 15 17 17 17 17 16 14 12 10 9 8 7 7 8 8 8 8 9 10 10 10 10 11 11 12 12 13 13 13 14 16 17 17 17 17 17 18 19 19 20 21
19 18 18 18 18 17 17 17 17 16 16 16 16 15 14 13 12 12 11 11 11 11 12 13 13 14 14 14 15 16 16 16 16 14 11 8 7 6 7 8 8 8 8 8 9 10 11 11 11 10 11 11 12 12 13 14 14 14 15 15 16 17 17 17 17 17 17 18 20
18 18 17 17 17 17 17 17 16 16 16 15 14 13 13 12 11 11 11 12 12 12 13 14 14 14 14 15 15 15 15 15 14 11 8 7 7 7 8 8 7 7 8 9 10 11 11 11 11 10 10 11 11 12 13 14 15 16 16 16 17 18 19 20 20 20 20 20 21
18 17 17 17 16 16 16 16 15 15 14 13 12 11 11 11 10 11 11 12 13 13 14 14 15 15 15 15 14 14 14 14 12 9 7 7 8 8 8 7 6 7 9 10 11 12 12 11 10 9 9 10 11 12 13 13 14 15 16 17 19 20 22 23 24 24 24 24 24
18 17 17 16 16 16 15 14 14 13 12 11 10 10 10 11 11 11 12 13 14 14 15 15 15 15 15 15 14 13 13 11 9 8 7 8 9 8 7 6 7 9 11 12 12 11 11 10 9 9 9 9 10 11 11 12 13 13 14 15 17 19 20 22 23 23 23 22 22
17 17 17 16 15 15 14 13 12 12 11 11 11 11 11 11 12 12 13 13 14 15 15 16 16 16 15 15 14 13 11 10 8 8 8 9 9 8 7 7 8 10 12 12 11 10 9 9 9 8 8 8 9 9 10 10 11 11 12 12 13 14 15 16 17 17 17 17 16
17 17 16 15 14 13 13 12 11 11 11 11 11 11 12 12 12 12 13 13 14 15 15 16 16 16 15 14 12 11 9 9 8 9 9 9 9 8 8 8 9 10 10 10 9 8 8 8 8 8 8 8 7 7 8 9 9 9 10 10 10 10 10 11 11 12 12 12 11
18 17 16 15 14 13 12 12 11 11 11 11 11 11 12 12 12 12 12 13 13 14 15 15 14 14 12 11 9 8 8 8 9 9 9 8 8 7 7 7 8 7 6 5 6 7 8 8 8 8 8 8 7 6 6 7 7 8 8 8 8 7 7 8 9 9 9 9 9
18 17 16 15 14 13 12 11 11 10 10 10 10 11 11 11 11 11 12 12 13 13 13 12 10 9 8 7 7 8 8 9 8 8 7 7 7 7 7 6 6 5 3 2 4 6 7 8 8 8 8 8 7 6 6 6 6 6 7 6 6 6 5 6 7 7 8 8 7
18 17 16 14 13 12 11 10 10 9 9 10 10 10 11 11 10 11 11 12 12 11 10 8 6 5 6 7 8 9 9 8 7 6 6 7 7 7 6 5 4 3 2 2 3 5 7 8 8 8 7 7 7 6 5 5 5 5 6 6 5 5 6 6 6 6 6 6 6
17 16 15 14 13 11 10 9 9 9 9 9 10 10 10 10 10 10 10 9 9 7 5 4 4 5 6 7 8 8 8 8 7 6 5 6 6 6 5 4 4 3 3 3 4 5 6 7 8 8 7 7 7 6 5 5 5 6 6 6 5 5 5 6 6 6 6 6 6
16 15 14 13 12 11 9 9 9 9 9 10 10 10 10 10 9 8 8 7 5 4 3 4 4 5 5 6 7 7 8 7 6 6 5 6 6 6 5 4 4 5 5 4 5 5 6 6 7 7 7 7 7 6 5 5 5 6 6 6 6 5 4 5 5 6 6 6 5
16 15 14 13 11 10 9 9 9 9 10 10 10 10 10 9 8 7 6 4 4 3 4 4 4 5 5 5 5 6 6 6 5 6 6 7 7 6 6 5 5 6 6 6 6 6 6 5 6 6 7 7 7 7 6 6 6 6 6 6 5 5 4 5 6 6 6 6 5
16 15 14 13 11 10 9 9 10 10 10 10 11 11 10 9 8 7 5 4 4 4 4 4 4 5 5 5 5 5 5 6 6 7 8 8 8 7 7 7 7 7 7 7 7 7 6 6 7 7 7 7 7 8 8 7 7 6 6 6 6 5 5 6 6 7 7 6 5
17 16 14 13 12 10 10 10 10 11 11 11 11 11 11 10 9 7 6 5 5 4 4 4 4 5 4 4 5 6 7 7 8 8 9 9 8 8 8 8 8 8 8 8 8 7 7 8 8 8 7 7 8 8 8 8 7 7 7 7 7 6 6 7 7 7 7 6 6
17 16 15 13 12 11 10 10 10 11 11 11 11 11 11 11 10 8 8 7 7 6 5 4 4 4 5 6 7 8 8 8 8 9 9 9 9 9 8 8 8 8 8 9 9 9 8 8 8 8 8 8 8 8 8 8 8 7 7 8 8 8 8 8 8 8 7 7 6
18 16 15 13 12 11 10 10 10 11 11 11 12 12 11 11 10 10 10 10 10 9 8 8 7 7 7 8 8 9 9 9 9 9 9 9 9 9 9 9 8 8 8 9 9 9 9 9 10 9 9 8 8 8 8 8 8 7 8 8 9 9 8 8 8 8 8 8 8
17 16 14 13 11 10 10 10 10 10 11 11 12 11 11 9 9 10 11 11 11 11 11 10 10 9 9 9 9 9 9 9 9 10 10 10 10 10 10 9 9 9 10 10 11 11 11 11 11 10 9 9 9 9 9 8 8 7 8 8 8 8 8 9 9 9 9 9 9
17 15 14 12 11 11 10 10 10 10 11 11 12 11 10 8 7 9 11 11 12 12 12 12 11 11 10 9 9 9 9 9 10 10 11 11 11 10 10 10 10 11 12 12 12 12 11 11 10 9 9 10 10 9 9 9 8 8 9 9 9 9 9 9 9 9 9 10 10
16 14 13 12 11 11 11 11 10 10 11 11 11 10 8 6 7 8 10 11 12 12 12 12 12 12 11 10 10 9 9 9 9 10 10 11 11 11 11 12 12 13 13 13 13 12 10 9 9 9 10 11 11 10 10 10 10 10 10 10 10 10 10 10 10 10 10 10 10
15 13 13 12 12 12 12 11 11 11 10 10 10 9 7 6 7 8 10 11 12 12 12 13 13 12 12 11 11 10 10 10 9 9 10 10 11 12 13 14 14 14 14 14 13 11 9 8 9 10 11 11 11 11 11 11 11 11 11 11 11 11 10 11 11 11 10 10 10
14 14 13 13 13 13 12 12 11 11 10 10 9 8 7 8 9 10 11 12 12 12 13 13 13 13 13 13 13 12 12 11 11 11 12 13 14 15 16 17 16 15 15 15 14 12 10 10 11 12 12 11 11 11 11 11 11 11 12 12 12 11 10 10 11 10 10 10 10
15 15 15 15 14 14 13 12 12 11 11 10 9 9 9 10 11 12 12 12 12 12 12 13 13 14 14 13 13 13 13 13 14 14 15 15 16 16 16 17 17 16 16 15 13 10 9 11 12 13 12 12 11 11 11 11 11 11 11 12 12 11 11 10 10 10 10 10 10
16 16 16 16 15 15 14 13 12 12 11 11 10 10 11 13 13 13 13 12 12 12 12 12 12 13 13 13 13 13 14 14 15 15 15 14 14 14 14 14 14 14 14 12 10 9 9 10 12 12 13 12 12 12 12 12 12 12 12 12 12 12 12 11 11 10 10 10 10
18 18 17 17 16 16 15 13 13 12 12 12 12 12 13 13 13 13 13 13 13 12 12 11 11 12 12 13 12 12 12 12 12 12 11 11 11 11 12 12 12 12 11 9 9 9 10 10 10 11 12 13 13 13 14 14 13 13 13 13 13 13 13 12 12 11 10 10 10
20 19 19 18 17 16 15 14 14 14 14 14 13 13 13 13 13 13 13 13 13 13 12 12 12 12 12 12 12 11 11 10 10 9 9 10 10 11 11 11 10 10 9 9 9 10 10 10 10 11 12 12 13 14 14 14 14 14 14 14 14 13 13 12 12 11 11 11 11
21 20 20 19 18 17 16 15 15 15 15 15 15 15 14 14 13 13 13 12 12 12 12 11 12 12 11 11 11 10 10 9 9 10 10 10 10 10 9 9 8 9 9 9 10 11 11 11 10 11 11 12 13 14 14 15 15 15 15 15 14 13 13 12 11 11 11 12 12
22 21 20 20 19 18 17 16 16 15 15 15 15 15 15 14 14 13 12 12 11 11 10 10 9 9 9 9 8 8 8 8 8 8 8 8 8 7 7 7 8 9 9 9 10 10 11 11 10 11 11 12 13 14 15 15 16 16 16 15 14 13 12 12 11 12 13 13 14
22 22 21 20 19 18 17 17 16 15 15 16 16 16 16 15 14 13 12 11 10 9 8 7 7 7 7 7 7 7 7 7 7 7 7 7 6 6 6 7 8 8 9 9 9 10 11 10 10 11 11 12 14 15 16 16 16 16 16 15 14 13 12 12 12 12 14 15 15
22 22 21 20 19 19 18 17 16 16 15 16 16 16 15 14 13 12 11 10 9 8 7 7 7 7 7 7 7 7 7 7 6 6 6 6 6 6 6 7 7 7 7 8 9 10 10 10 10 11 12 13 15 16 16 16 16 16 15 15 14 13 12 12 12 13 14 15 15
22 21 21 20 20 19 18 17 16 16 15 15 16 15 14 13 12 12 11 10 9 8 8 8 8 8 8 8 7 7 7 6 6 6 6 7 7 6 6 6 6 6 7 8 8 9 10 10 11 12 12 14 15 15 16 16 16 15 15 14 13 13 12 11 11 12 13 13 13
22 22 21 20 20 19 18 17 17 16 15 15 15 15 14 13 13 12 12 11 10 9 9 9 9 8 8 8 8 7 7 6 6 6 7 7 7 6 5 5 5 6 7 7 8 9 10 11 12 12 13 14 15 15 16 16 16 15 15 14 13 12 11 10 10 11 11 12 12
22 22 21 20 20 19 18 18 17 16 16 16 16 15 14 14 14 13 13 11 10 10 9 9 9 8 8 8 8 8 7 7 6 6 7 7 7 6 5 5 5 6 7 7 8 10 10 11 12 12 13 14 15 15 16 16 16 16 15 14 13 12 11 10 10 10 10 11 11
22 22 21 20 19 19 18 18 17 17 17 17 17 17 16 15 14 14 13 11 10 10 10 10 9 9 9 9 9 8 7 7 7 7 7 7 7 6 6 6 6 6 7 8 9 10 10 10 11 12 13 13 15 15 15 16 16 16 15 15 14 13 13 12 11 10 10 10 11
22 22 21 20 19 19 19 18 18 18 18 19 18 18 17 16 15 14 13 12 11 10 10 10 9 9 9 9 9 8 8 7 7 7 7 8 8 7 7 7 7 7 8 9 9 9 9 9 10 11 12 13 14 15 15 16 16 16 16 16 15 15 14 13 12 11 11 10 11
22 22 21 20 20 19 19 19 19 20 20 20 19 18 17 16 16 15 13 12 11 11 11 11 10 10 10 9 9 8 8 8 8 8 8 8 9 9 9 9 9 8 8 8 9 9 9 9 10 11 12 13 14 15 15 16 17 17 17 17 16 16 15 14 13 12 11 11 11
21 21 21 20 20 20 20 20 20 20 20 20 19 18 18 17 16 15 14 13 12 12 12 11 11 11 10 10 9 8 8 8 8 9 9 9 9 10 10 11 10 9 9 8 8 9 9 9 10 11 12 13 14 15 15 16 17 18 18 17 17 16 16 15 13 12 12 11 11
21 21 21 21 20 20 20 21 21 21 20 20 19 19 18 17 17 16 15 13 12 12 12 12 12 11 11 10 9 9 9 9 9 9 9 10 10 11 11 11 11 10 9 9 8 9 9 10 10 10 11 12 14 14 15 16 17 18 18 18 17 17 16 15 14 13 12 12 12
21 21 21 21 21 21 21 21 21 21 20 20 19 19 18 18 17 16 15 14 13 12 12 12 12 11 11 10 10 9 9 9 9 10 10 11 11 12 12 12 11 11 10 9 9 9 10 10 10 10 10 12 13 14 14 15 17 18 18 18 18 17 16 15 15 14 13 12 12
Wind_Direction
201 200 198 197 197 196 195 194 195 196 197 198 198 200 203 205 207 210 214 219 221 225 229 233 237 242 247 251 254 257 261 265 269 275 280 285 287 287 287 287 287 286 286 286 286 288 290 291 290 288 285 282 277 271 266 261 256 253 251 253 257 259 259 257 256 254 252 247 243
200 199 198 198 198 199 198 198 198 200 201 204 206 209 212 214 216 218 220 223 225 228 232 236 240 243 247 252 255 258 262 266 272 278 284 287 287 287 287 287 287 284 282 281 284 288 291 293 292 291 289 288 287 285 280 272 265 258 254 253 256 258 257 253 249 247 246 243 240
202 201 202 202 204 204 205 205 206 207 208 210 214 217 219 222 223 224 224 224 227 231 234 237 241 244 247 252 257 260 264 269 275 282 286 287 288 290 290 286 281 276 276 279 285 288 290 290 287 284 281 280 280 281 282 282 277 269 261 255 255 256 255 249 243 239 237 235 233
205 205 206 208 210 211 212 213 214 214 215 216 219 221 224 227 228 227 226 226 229 232 235 238 242 245 247 251 257 263 268 274 280 285 288 290 291 291 288 282 277 277 281 288 291 291 289 286 283 280 278 275 274 274 275 278 279 275 267 259 255 254 254 251 246 241 237 234 233
207 208 210 212 213 215 216 218 218 219 220 221 222 224 226 228 229 230 229 229 229 232 237 240 243 245 248 251 257 264 271 277 283 286 288 291 291 286 281 279 280 286 291 292 290 286 282 280 279 280 281 280 279 277 276 275 274 271 267 262 256 253 252 252 250 247 243 239 237
209 210 211 213 213 214 216 218 220 221 223 226 226 226 228 230 231 231 231 231 231 235 239 241 243 245 248 252 257 264 271 277 282 284 282 280 280 280 280 283 287 289 286 283 280 279 277 278 281 283 284 283 283 281 278 276 273 269 265 260 256 253 250 248 246 242 238 234 233
210 210 210 212 212 213 214 216 219 222 225 227 228 229 232 234 235 236 236 236 236 237 239 242 243 245 249 253 258 263 268 272 275 274 272 272 274 278 284 289 288 283 279 275 275 276 278 280 282 283 282 281 281 279 278 277 274 269 263 258 254 250 246 242 239 235 229 225 223
209 210 210 211 211 212 212 214 216 219 222 225 228 231 235 239 240 241 242 241 239 239 241 243 245 248 251 255 258 260 261 260 261 263 264 265 270 275 280 283 283 281 279 278 280 281 283 282 283 283 284 282 280 279 277 276 273 269 264 258 253 247 242 237 233 228 222 218 216
205 207 209 210 210 211 212 213 215 217 220 224 229 233 238 241 243 245 244 243 243 244 245 246 249 253 256 257 257 254 250 250 254 256 257 258 262 267 271 276 280 282 285 289 292 291 288 285 283 282 281 281 280 277 275 274 272 270 266 260 253 243 233 226 224 222 219 217 217
203 205 206 207 209 210 212 214 216 219 222 227 231 235 239 243 246 247 247 248 249 250 250 251 255 257 257 254 249 244 243 248 254 254 253 254 257 261 266 272 279 283 290 300 300 296 293 288 283 278 276 275 277 277 275 274 273 271 267 262 255 243 226 213 210 213 217 220 222
203 204 205 206 208 211 212 214 216 220 224 229 233 238 241 243 245 247 250 253 254 256 257 259 260 258 253 246 240 239 242 246 247 249 252 256 259 260 263 271 277 278 275 282 288 290 291 289 285 278 272 269 270 272 276 278 278 274 267 262 261 257 246 229 217 214 217 221 221
203 204 205 207 208 210 211 213 217 222 227 231 236 239 242 243 245 248 252 255 257 260 263 264 259 250 243 239 237 237 237 237 237 242 250 255 257 258 261 266 267 254 224 215 251 271 281 286 287 284 278 273 268 266 269 278 284 283 277 269 266 267 267 262 249 235 226 223 219
203 204 205 207 208 208 209 214 219 224 229 233 237 239 241 243 246 250 254 257 260 262 261 252 243 237 237 237 236 235 234 230 228 229 234 242 248 251 253 254 242 220 204 210 232 252 267 278 284 288 290 287 280 272 268 273 281 287 286 282 273 265 263 267 261 252 239 228 222
204 205 206 206 207 208 210 215 219 223 227 231 235 239 241 243 247 250 253 255 257 248 232 221 222 228 232 237 238 236 233 228 222 216 216 222 230 237 240 235 220 207 205 215 230 243 254 266 277 286 293 298 294 289 282 279 279 281 283 283 279 269 258 253 252 249 244 237 230
204 206 207 207 207 210 213 216 217 219 223 227 233 237 239 242 246 248 246 240 232 220 212 211 216 226 235 237 236 230 224 216 210 209 211 212 218 226 232 228 214 208 212 224 234 241 247 258 270 283 294 302 301 299 297 294 287 282 279 277 275 271 260 248 244 242 242 240 237
205 206 207 207 210 213 216 216 215 216 219 224 231 234 237 240 244 242 233 221 217 214 214 219 228 237 240 235 223 211 202 198 202 206 208 209 214 223 229 230 221 216 218 227 234 241 249 261 273 285 294 300 299 297 295 293 289 284 279 273 267 262 256 249 243 239 236 238 237
206 206 208 210 214 217 217 214 213 214 218 224 229 233 235 238 238 231 218 210 211 211 213 223 238 242 235 218 204 196 194 196 201 204 205 208 213 221 228 231 228 225 224 226 232 239 250 263 276 284 289 289 287 285 283 281 279 276 271 264 256 252 250 248 243 236 231 232 233
206 208 211 215 218 219 217 214 212 214 218 223 228 232 236 237 231 219 206 203 201 199 199 203 215 218 211 199 197 197 199 202 205 206 208 211 216 223 229 233 234 233 231 230 232 237 246 259 271 278 278 274 270 267 266 267 267 265 259 251 244 242 244 246 241 235 230 228 228
208 211 215 218 220 220 217 214 213 215 219 223 227 233 238 240 228 211 199 197 197 196 194 194 195 198 200 199 198 199 203 207 212 215 217 220 224 229 234 239 242 245 245 244 246 249 255 262 268 271 269 263 257 253 252 252 253 251 246 242 235 234 237 240 236 232 229 227 225
210 214 218 220 220 218 216 216 217 219 221 224 228 234 241 244 223 203 197 200 201 201 200 199 198 199 201 202 202 202 206 212 219 225 230 233 237 240 245 250 254 259 263 266 270 273 274 272 270 264 257 250 246 243 242 241 240 238 236 236 233 231 232 234 230 224 221 220 221
213 217 219 219 218 216 216 217 220 223 225 226 229 236 243 241 213 198 200 208 210 210 209 210 211 210 210 212 211 211 213 218 224 231 238 243 246 249 253 258 264 269 274 278 282 283 282 277 268 256 245 240 238 237 237 237 236 236 235 236 236 236 235 233 231 225 219 217 218
215 217 217 216 216 216 217 219 222 224 225 227 229 234 237 226 205 200 207 214 217 217 216 217 219 221 222 222 222 222 224 227 230 235 241 246 251 256 261 266 272 277 281 283 285 285 281 271 258 246 239 236 236 237 238 238 238 239 239 238 237 237 236 235 234 230 224 218 216
213 213 213 213 214 215 217 219 222 224 224 225 227 228 223 208 203 207 214 218 220 220 220 221 224 227 230 231 233 235 237 239 242 247 252 257 262 267 272 276 280 282 283 284 285 284 275 258 246 240 237 235 236 238 239 239 238 238 236 234 232 230 230 231 230 227 221 214 211
209 209 209 210 212 214 216 219 221 221 221 220 220 216 206 199 203 211 216 219 220 221 222 225 228 232 235 238 242 245 248 253 259 265 270 274 277 279 281 282 283 282 282 282 283 278 263 245 237 234 234 234 235 236 237 237 235 233 230 227 223 220 219 220 220 215 209 203 201
204 206 207 209 210 213 216 218 220 219 216 215 213 207 202 201 205 211 215 218 220 221 222 225 229 232 236 239 244 249 255 261 266 271 275 278 280 281 282 283 282 281 280 279 275 264 247 236 232 231 231 232 233 234 233 230 228 225 222 219 214 209 206 203 201 197 192 190 191
203 205 207 209 211 214 216 218 219 218 215 212 209 207 206 206 208 212 217 220 222 222 223 226 229 233 237 242 248 254 260 264 266 268 270 272 275 277 279 280 280 280 278 271 256 240 230 229 227 229 230 231 231 229 225 221 219 216 213 209 205 199 194 189 185 182 180 181 184
203 206 208 211 214 216 218 219 220 218 215 211 208 208 209 210 212 214 218 222 226 228 231 235 240 244 248 252 256 260 262 263 263 264 265 268 272 274 276 276 275 272 266 256 236 222 218 221 224 228 230 230 229 224 218 212 209 207 203 198 194 191 188 184 180 177 177 178 181
206 208 210 213 215 218 220 220 220 218 215 212 210 211 213 215 216 218 221 225 230 235 240 245 250 254 256 258 259 259 259 261 263 266 270 272 273 272 271 269 264 256 247 239 225 215 211 215 222 223 223 226 225 220 214 207 202 197 193 188 186 185 185 183 181 178 177 176 175
208 210 212 214 217 218 219 220 219 218 216 214 213 215 217 218 220 223 226 231 235 240 244 248 251 253 254 255 256 257 259 263 266 269 270 269 268 266 264 260 252 243 236 232 224 214 208 211 216 215 213 217 218 216 210 203 196 190 185 183 182 183 183 181 180 178 176 173 168
210 211 213 215 217 219 220 221 220 219 217 216 216 217 219 221 225 229 233 237 240 242 243 244 246 247 247 249 250 253 255 257 258 258 256 256 255 256 255 252 246 240 237 233 225 214 209 210 211 208 205 208 210 208 203 196 191 185 181 179 180 181 181 181 179 177 174 170 165
211 212 214 216 217 218 219 220 220 218 217 216 217 218 220 223 227 231 234 235 234 232 231 231 234 235 237 237 238 240 241 242 240 239 239 241 242 245 248 250 250 246 241 232 222 214 208 206 205 201 198 201 203 201 196 191 187 183 179 178 178 179 180 180 181 178 174 169 164
212 213 214 216 217 218 219 218 216 215 215 215 217 219 221 223 226 227 227 224 220 217 217 220 224 225 226 226 228 229 230 231 231 230 229 230 233 239 246 253 254 246 233 220 213 209 204 200 197 194 194 197 197 195 191 188 184 181 179 178 178 178 179 182 183 181 177 172 167
213 214 215 215 216 217 216 215 213 213 214 216 218 220 221 221 221 219 216 212 211 213 217 222 223 222 220 221 224 225 226 227 229 230 230 229 231 236 245 251 246 226 208 201 201 199 196 194 190 190 193 196 194 191 188 185 182 180 178 177 177 178 181 186 187 185 181 177 173
215 215 215 215 215 214 213 211 210 211 214 217 219 220 220 218 216 211 208 208 212 218 224 227 226 222 220 221 223 224 224 225 228 230 230 228 227 230 236 237 217 195 185 187 189 189 188 188 188 190 193 194 191 188 186 183 181 178 177 176 177 178 180 184 186 185 183 181 178
214 214 214 214 214 212 211 209 209 211 214 216 217 218 217 216 213 209 207 208 214 221 226 228 225 221 219 221 224 225 224 224 226 226 225 222 219 218 218 212 192 180 176 180 181 181 181 183 187 192 194 193 189 186 184 182 180 178 177 176 175 176 177 179 180 180 179 179 178
213 213 213 213 212 210 209 208 209 211 213 214 214 214 214 214 213 211 210 212 217 222 224 224 221 218 218 220 224 225 224 222 221 220 218 214 209 206 203 197 186 178 176 179 178 177 178 184 190 195 195 192 189 186 185 184 181 179 177 175 175 174 176 176 176 174 173 174 176
213 212 212 211 210 210 209 209 210 211 212 213 212 212 212 213 213 212 213 216 218 220 221 221 218 217 219 220 221 221 221 220 217 214 211 208 205 200 197 194 189 182 178 178 179 180 182 187 195 199 198 194 190 188 187 186 184 181 179 176 175 174 174 174 174 172 170 171 175
212 211 211 211 211 211 210 210 210 211 212 212 212 212 213 214 214 213 214 217 218 219 218 218 217 218 219 219 218 217 218 220 218 214 209 207 205 201 197 194 192 188 184 183 185 187 190 194 200 203 202 197 193 191 190 188 186 183 180 178 176 174 173 173 172 171 170 172 176
213 212 212 213 213 213 212 211 211 212 212 212 212 212 213 214 214 214 215 218 221 221 220 217 217 218 218 217 217 217 219 221 221 218 213 209 208 205 202 199 197 196 195 194 194 192 191 193 199 203 202 199 197 196 194 191 188 185 183 181 179 176 174 174 174 173 172 172 175
214 213 213 215 215 214 213 212 213 214 214 213 213 214 214 214 214 214 215 218 222 224 224 221 219 218 219 219 219 220 223 224 223 220 217 213 210 208 206 205 204 205 205 203 197 192 188 188 191 196 200 199 199 198 197 194 191 188 187 186 184 181 179 179 181 181 180 177 176
215 215 215 216 216 215 214 214 214 215 216 216 216 217 217 216 214 214 215 217 220 224 224 223 221 220 221 222 224 225 227 227 224 220 217 212 209 207 207 207 209 211 210 205 195 189 185 184 183 189 196 197 198 197 197 195 193 191 190 190 190 189 188 187 188 189 189 185 180
Height
808 809 810 810 811 811 812 812 813 814 814 815 815 815 816 816 817 817 817 817 817 817 817 817 817 818 818 818 818 818 818 818 818 818 818 817 817 816 816 815 815 815 815 814 814 814 814 814 814 813 813 813 813 812 812 812 812 812 812 812 812 812 813 813 813 813 813 814 814
808 808 809 810 810 810 811 812 812 813 813 814 814 815 815 815 816 816 816 816 816 816 816 816 816 817 817 817 817 817 817 817 817 817 817 816 816 815 815 815 814 814 814 814 813 813 813 813 813 812 812 812 812 811 811 811 811 811 811 811 811 811 811 811 811 811 812 812 812
807 808 808 809 809 810 810 811 812 812 813 813 813 814 814 814 815 815 815 815 815 815 815 815 815 815 816 816 815 815 816 816 816 816 816 815 815 814 814 814 814 813 813 813 812 812 812 812 812 811 811 811 811 810 810 810 810 810 810 810 810 810 810 810 810 810 810 810 810
807 807 808 808 809 809 810 810 811 811 812 812 812 813 813 813 813 814 814 814 814 814 814 814 815 815 815 815 815 815 815 815 815 815 815 814 814 813 813 813 813 812 812 812 812 811 811 811 811 811 810 810 810 810 810 809 809 809 809 809 809 809 809 809 809 808 809 809 809
806 806 807 807 808 809 809 810 810 810 810 811 811 811 812 812 812 812 813 813 813 813 813 813 814 814 814 814 814 814 814 814 814 814 814 813 813 813 813 812 812 811 811 811 811 811 811 810 810 810 810 809 809 809 809 808 808 808 808 808 807 808 808 808 808 808 808 808 808
805 805 806 807 807 808 808 809 809 809 810 810 810 810 810 811 811 811 811 812 812 812 812 812 813 813 813 813 813 813 813 812 813 813 813 813 812 812 812 811 811 811 811 811 810 810 810 810 810 809 809 809 809 808 808 808 808 807 807 807 806 806 806 806 806 806 806 806 806
804 805 805 805 806 807 807 808 808 808 809 809 809 809 809 810 810 810 810 811 811 811 811 811 811 812 812 812 812 812 812 811 812 812 812 812 812 811 811 810 810 810 810 810 810 810 809 809 809 809 808 808 808 808 807 807 807 807 806 806 805 805 805 805 805 804 804 804 804
803 804 804 805 805 806 806 807 807 807 808 808 808 808 808 809 809 809 810 810 810 810 810 810 810 811 811 811 811 811 811 811 811 811 811 811 811 810 810 810 810 810 810 809 809 809 809 808 808 808 808 808 807 807 807 807 806 806 806 805 805 805 805 804 804 803 803 803 804
802 803 803 804 805 805 805 806 806 807 807 807 807 808 808 808 808 809 809 809 809 809 809 810 810 810 810 810 810 810 810 810 810 810 810 810 810 810 810 810 809 809 809 809 808 808 808 808 808 807 807 807 807 807 806 806 806 806 805 805 805 805 804 804 804 803 803 803 803
801 802 802 803 804 804 805 805 806 806 806 806 807 807 807 807 807 808 808 808 808 808 808 809 809 809 809 809 809 809 809 809 809 809 809 809 809 809 809 809 809 809 808 808 808 807 807 807 807 807 807 807 806 806 806 806 806 806 805 805 805 805 804 804 804 803 803 803 803
800 801 801 802 803 804 804 805 805 805 805 805 806 806 806 806 806 807 807 807 807 807 807 807 808 808 808 808 808 808 808 808 808 808 808 808 808 808 808 808 808 808 808 807 807 807 807 807 806 806 806 806 806 806 806 806 806 805 805 805 804 804 804 804 804 803 803 803 802
800 800 801 802 802 803 804 804 804 805 805 805 805 805 805 805 805 806 806 806 806 806 806 806 806 807 807 807 807 807 808 808 808 808 808 807 807 807 808 808 808 807 807 807 807 807 806 806 806 806 805 805 805 805 805 805 805 805 805 805 804 804 804 804 804 804 803 803 803
799 800 800 801 802 803 803 803 804 804 804 804 804 804 804 804 805 805 805 805 805 805 805 805 806 806 806 806 806 807 807 807 807 807 807 806 806 807 807 807 807 807 807 806 806 806 806 806 806 805 805 805 805 805 805 805 805 805 805 805 804 804 804 804 804 804 804 804 803
799 800 800 801 801 802 802 803 803 803 803 803 803 803 803 803 804 804 804 804 804 804 805 805 805 805 805 806 806 806 806 806 806 806 806 806 806 806 806 806 806 806 806 806 806 806 806 806 805 805 805 805 805 805 805 805 805 805 805 804 804 804 803 804 804 804 804 804 803
799 800 800 800 801 801 802 802 802 802 802 801 802 802 802 802 803 803 803 803 804 804 804 805 805 805 805 805 805 805 805 805 805 805 805 805 805 805 806 806 806 806 805 805 805 806 806 805 805 805 805 804 804 804 804 804 804 804 804 804 804 803 803 803 804 804 804 803 803
798 799 800 800 800 801 801 801 801 801 801 801 801 801 801 802 802 802 803 803 803 804 804 804 804 804 805 805 805 805 805 805 805 805 804 805 805 805 805 805 805 805 805 805 805 805 805 805 805 805 804 804 804 804 804 804 804 804 803 803 803 803 803 803 804 804 804 803 802
798 798 799 799 800 800 800 800 800 800 800 800 800 800 801 801 801 802 802 802 803 803 803 803 804 804 804 804 804 804 804 804 804 804 804 804 804 805 805 805 805 805 805 805 805 805 805 805 805 804 804 804 804 804 804 804 803 803 803 803 803 803 803 803 803 803 803 803 802
797 798 798 798 799 799 799 799 799 799 800 800 800 800 800 800 801 801 801 802 802 803 803 803 803 803 803 803 803 803 803 803 803 803 803 803 804 804 804 804 804 804 804 804 804 804 804 804 804 804 804 804 804 804 804 803 803 803 803 803 803 803 803 803 803 803 803 802 802
796 796 797 797 798 798 798 798 798 799 799 799 799 799 800 800 800 800 801 801 801 802 802 802 802 803 803 803 802 802 802 802 802 802 803 803 803 803 803 803 803 803 803 804 804 804 804 804 803 803 803 803 803 803 803 803 803 803 803 803 803 803 803 803 803 803 803 803 803
795 795 796 796 796 797 797 797 798 798 798 798 798 799 799 799 799 800 800 800 801 801 801 801 801 802 802 802 802 801 801 801 801 802 802 802 802 802 802 802 802 802 802 802 803 803 803 803 803 803 803 803 803 803 803 803 803 803 803 803 803 803 803 803 803 803 803 803 803
794 795 795 795 795 796 796 796 797 797 797 797 798 798 798 798 798 799 799 800 800 800 800 800 801 801 801 801 801 801 801 800 801 801 801 801 802 802 802 802 801 801 801 801 801 802 802 802 802 802 802 802 802 802 802 802 802 802 802 803 803 803 803 803 803 803 803 803 803
793 794 794 795 795 795 795 796 796 796 796 797 797 797 797 798 798 798 799 799 799 799 800 800 800 800 800 800 800 800 800 800 800 800 800 801 801 801 801 801 801 800 800 800 800 800 801 801 801 801 801 801 801 801 802 802 802 802 802 802 802 802 802 803 803 803 803 802 802
793 793 793 794 794 794 795 795 795 795 795 796 796 796 796 797 797 797 798 798 798 798 799 799 799 799 799 800 800 800 800 800 800 800 800 800 800 800 800 800 800 800 800 800 800 800 800 800 800 800 800 800 800 801 801 801 801 801 801 801 802 802 802 802 802 802 802 802 802
792 792 793 793 793 793 794 794 794 795 795 795 795 795 796 796 796 797 797 797 797 797 798 798 798 799 799 799 799 799 799 799 799 799 799 799 799 799 799 799 799 799 799 799 799 799 799 799 799 799 799 800 800 800 800 800 800 800 800 801 801 801 801 801 801 801 801 802 802
791 791 792 792 792 792 793 793 793 794 794 794 795 795 795 795 795 796 796 796 796 796 797 797 797 798 798 798 798 798 798 798 798 798 798 798 798 798 798 798 798 798 798 798 798 798 798 798 798 798 799 799 799 799 800 800 800 800 800 800 800 800 801 801 801 801 801 802 802
790 791 791 791 791 791 792 792 792 793 793 794 794 794 794 794 795 795 795 795 796 796 796 796 796 797 797 797 797 797 797 797 797 798 797 797 797 797 797 797 797 796 796 796 797 797 797 797 798 798 798 798 798 799 799 799 799 799 800 800 800 800 800 800 801 801 801 802 802
789 790 790 790 790 790 791 791 792 792 793 793 793 793 794 794 794 794 794 795 795 795 795 795 795 796 796 796 796 796 796 796 796 796 796 796 796 796 796 796 796 795 795 795 795 796 796 797 797 797 797 797 798 798 798 798 798 799 799 799 800 800 800 800 800 801 801 802 802
788 788 789 789 789 790 790 790 791 791 792 792 792 793 793 793 793 793 793 794 794 794 795 795 795 795 795 795 795 795 795 795 795 795 795 795 795 795 795 795 795 795 795 795 795 795 795 796 796 796 796 797 797 797 797 798 798 798 799 799 799 800 800 800 800 801 801 801 802
786 787 787 788 788 789 789 790 790 790 791 791 792 792 792 792 792 793 793 793 793 793 794 794 794 794 794 795 795 795 795 795 795 795 795 795 795 794 794 794 794 794 794 794 794 795 795 795 796 796 796 796 796 797 797 797 797 798 798 799 799 799 800 800 800 801 801 801 802
785 785 786 786 787 787 788 788 789 790 790 790 791 791 791 791 792 792 792 792 792 793 793 793 793 793 793 794 794 794 794 794 794 794 794 794 794 793 793 793 793 793 793 794 794 794 794 795 795 795 795 795 796 796 797 797 797 798 798 798 799 799 800 800 801 801 801 802 802
784 784 785 785 786 786 787 787 788 789 789 790 790 790 790 791 791 791 791 791 792 792 792 792 792 793 793 793 793 793 793 793 793 793 793 793 793 793 793 793 793 793 793 793 793 793 794 794 795 795 795 795 796 796 796 797 797 798 798 798 799 799 800 800 801 801 801 802 802
783 783 784 784 785 785 786 786 787 788 788 789 789 789 790 790 790 790 791 791 791 791 791 791 792 792 792 792 792 792 792 792 792 792 792 792 792 792 792 792 792 792 792 792 793 793 794 794 794 795 795 795 795 796 796 797 797 798 798 799 799 800 800 800 801 801 802 802 803
782 782 783 783 784 784 785 785 786 787 788 788 788 789 789 789 790 790 790 790 790 790 791 791 791 791 791 791 791 792 792 792 792 792 792 792 792 792 792 792 792 792 792 792 792 793 794 794 794 794 794 795 795 796 796 797 797 798 798 799 799 800 800 801 801 802 802 803 803
781 781 782 782 783 783 784 785 785 786 787 787 788 788 788 789 789 789 789 790 790 790 790 790 790 790 790 791 791 791 791 791 791 791 791 792 792 792 792 792 792 792 792 792 793 793 794 794 794 794 794 794 795 796 796 797 797 798 798 799 799 800 800 801 801 802 802 803 803
780 781 781 782 782 783 783 784 785 785 786 786 787 787 788 788 788 788 788 789 789 790 790 790 790 790 790 790 790 791 791 791 791 791 791 791 791 791 792 792 792 792 792 792 793 793 793 793 793 793 794 794 795 795 796 797 797 798 798 799 799 800 800 801 801 802 802 803 803
780 780 780 781 782 782 783 783 784 784 785 785 786 786 787 787 787 787 788 788 788 789 789 789 789 790 790 790 790 790 790 791 791 791 791 791 791 791 792 792 792 792 792 793 793 793 793 793 793 793 794 795 795 795 796 797 797 798 798 799 799 800 800 801 801 801 802 802 803
778 779 780 780 781 781 782 782 783 783 784 784 785 785 786 786 786 787 787 787 788 788 788 789 789 789 789 789 790 790 790 790 790 791 791 791 791 791 792 792 792 792 792 793 793 793 793 793 793 794 794 795 795 795 796 797 797 798 798 799 800 800 800 800 801 801 802 802 803
777 778 779 780 780 781 781 782 782 782 783 783 784 784 785 785 785 786 786 786 787 787 787 788 788 788 789 789 789 790 790 790 790 790 790 791 791 791 791 792 792 792 792 793 793 793 793 794 794 794 794 795 795 795 796 797 797 798 798 799 800 800 800 801 801 801 802 802 803
776 777 778 779 779 780 780 780 781 781 781 782 783 784 784 784 785 785 785 786 786 786 787 787 788 788 788 789 789 790 790 790 790 790 790 790 791 791 791 791 792 792 792 793 793 793 794 794 794 794 794 794 795 795 796 796 797 798 798 799 800 800 800 801 801 801 802 802 803
775 776 777 778 778 779 779 780 780 780 781 781 782 782 783 783 784 784 785 785 785 786 786 786 787 787 788 788 789 789 789 790 790 790 790 790 790 791 791 791 792 792 792 793 793 794 794 794 794 794 794 794 795 795 795 796 797 798 798 799 799 800 800 800 801 801 802 802 803
774 775 776 776 777 778 778 778 779 779 780 780 781 781 782 783 783 783 784 784 785 785 785 786 786 787 787 788 788 789 789 789 790 790 790 790 790 790 791 791 791 792 792 793 793 794 794 794 794 794 794 794 794 795 795 796 796 797 798 798 799 799 800 800 801 801 802 802 802